Weather History for KCUT - September, 2012

Change the Weather History Date:

Tuesday, September 11, 2012

  Actual Average Record
Temperature  
Mean Temperature 62 °F 56 °F  
Max Temperature 73 °F 70 °F 86 °F (1956)
Min Temperature 50 °F 43 °F 21 °F (1989)
Degree Days  
Heating Degree Days 3 9  
Month to date heating degree days 38 80  
Since 1 July heating degree days 107 234  
Cooling Degree Days 0 1  
Month to date cooling degree days 23 11  
Year to date cooling degree days 390 177  
Growing Degree Days 12 (Base 50)    
Moisture  
Dew Point 34 °F    
Average Humidity 43    
Maximum Humidity 63    
Minimum Humidity 22    
Precipitation  
Precipitation 0.03 in 0.06 in 0.87 in (2006)
Month to date precipitation 0.11 0.69  
Year to date precipitation 10.25 15.61  
Sea Level Pressure  
Sea Level Pressure 29.84 in    
Wind  
Wind Speed 7 mph (NNE)    
Max Wind Speed 15 mph    
Max Gust Speed 21 mph    
Visibility 10 miles    
Events Rain    
T = Trace of Precipitation, MM = Missing Value Source: NWS Daily Summary

Daily Weather History Graph

Daily Weather History Graph

Search for Another Location

Airport or City:

Trip Planner

Search our weather history database for the weather conditions in past years. The results will help you decide how hot, cold, wet, or windy it might be!

Date:

Astronomy

Sep. 11, 2012 Rise Set
Actual Time 6:29 AM MDT 7:11 PM MDT
Civil Twilight 6:00 AM MDT 7:40 PM MDT
Nautical Twilight 5:26 AM MDT 8:14 PM MDT
Astronomical Twilight 4:50 AM MDT 8:49 PM MDT
Moon 1:42 AM MDT (9/11) 4:29 PM MDT (9/11)
Length of Visible Light 13h 39m
Length of Day
12h 41m
Waning Crescent, 21% of the Moon is Illuminated
Sep 11
Waning Crescent
Sep 15
New
Sep 22
First Quarter
Sep 29
Full
Oct 8
Last Quarter

Hourly Weather History & Observations

Time (MDT) Temp. Dew Point Humidity Pressure Visibility Wind Dir Wind Speed Gust Speed Precip Events Conditions
12:53 AM 60.1 °F 43.0 °F 53% 29.68 in 10.0 mi WSW 4.6 mph - N/A   Clear
1:53 AM 62.1 °F 44.1 °F 52% 29.67 in 10.0 mi WSW 6.9 mph - N/A   Clear
2:53 AM 59.0 °F 43.0 °F 55% 29.69 in 10.0 mi WSW 4.6 mph - N/A   Clear
3:53 AM 57.9 °F 43.0 °F 58% 29.69 in 10.0 mi West 3.5 mph - N/A   Clear
4:53 AM 57.0 °F 41.0 °F 55% 29.70 in 10.0 mi WNW 4.6 mph - N/A   Clear
5:53 AM 59.0 °F 37.9 °F 46% 29.74 in 10.0 mi NNW 5.8 mph - N/A   Clear
6:53 AM 57.0 °F 37.0 °F 47% 29.77 in 10.0 mi NNW 6.9 mph - N/A   Clear
7:53 AM 57.0 °F 33.1 °F 40% 29.80 in 10.0 mi North 6.9 mph - N/A   Clear
8:53 AM 57.9 °F 34.0 °F 41% 29.84 in 10.0 mi ENE 5.8 mph - N/A   Clear
9:53 AM 64.0 °F 32.0 °F 30% 29.85 in 10.0 mi WNW 3.5 mph - N/A   Clear
10:53 AM 68.0 °F 34.0 °F 28% 29.84 in 10.0 mi Calm Calm - N/A   Clear
11:53 AM 71.1 °F 39.0 °F 31% 29.81 in 10.0 mi South 8.1 mph - N/A   Clear
12:53 PM 72.0 °F 37.0 °F 28% 29.82 in 10.0 mi SW 8.1 mph 18.4 mph N/A   Clear
1:53 PM 71.1 °F 30.0 °F 22% 29.80 in 10.0 mi East 13.8 mph 17.3 mph N/A   Clear
2:53 PM 70.0 °F 28.0 °F 21% 29.82 in 10.0 mi ENE 13.8 mph - N/A   Clear
3:53 PM 66.0 °F 26.1 °F 22% 29.84 in 10.0 mi East 10.4 mph - N/A   Partly Cloudy
4:53 PM 63.0 °F 26.1 °F 25% 29.87 in 10.0 mi East 9.2 mph - N/A   Partly Cloudy
5:53 PM 61.0 °F 25.0 °F 25% 29.89 in 10.0 mi East 8.1 mph - N/A   Clear
6:53 PM 57.0 °F 30.9 °F 37% 30.03 in 9.0 mi South 5.8 mph - 0.00 in Rain Light Rain
7:53 PM 51.1 °F 41.0 °F 68% 30.01 in 10.0 mi NE 4.6 mph - 0.03 in   Mostly Cloudy
8:53 PM 52.0 °F 39.0 °F 61% 30.02 in 10.0 mi NE 4.6 mph - N/A   Overcast
9:53 PM 54.0 °F 32.0 °F 43% 30.00 in 10.0 mi ENE 11.5 mph - N/A   Overcast
10:53 PM 53.1 °F 25.0 °F 34% 30.00 in 10.0 mi NE 10.4 mph - N/A   Overcast
11:53 PM 53.1 °F 24.1 °F 32% 30.01 in 10.0 mi NE 8.1 mph - N/A   Overcast